UME 2 (ISS-B)

导读

UME 2 (ISS-B)是日本于1978年2月16日发射的一颗卫星,是日本早期航天探索活动的组成部分。该卫星作为国际卫星发射序列中的一颗,承担着空间技术验证相关任务,助力日本积累航天发射、卫星在轨运行等方面的技术经验,为日本后续航天产业发展,包括后续参与国际空间站项目奠定了初步的技术实践基础,在日本航天发展历程中是较早的实践尝试。

Basic Information
目录编号:
10674
目录名称:
UME 2 (ISS-B)
国际标识:
1978-018A
轨道中心:
EARTH
卫星名称:
UME 2 (ISS-B)
卫星全名:
--
卫星状态:
在轨 (已飞行17680 天)
发射日期:
1978-02-16 UTC
国别 :
日本 (JP)
星等 :
--
Orbit Information
数据来源 国际轨道数据 AOE轨道数据
星历时间 2026-07-13T18:37:07+0800
19小时前
查看轨道信息
2026-07-09T23:00:00+0800
4天前
查看轨道信息
半长轴 7473.609km 7473.607km
偏心率 0.0161087 0.0161139
轨道倾角 69.361° 69.360°
近地点辐角 75.580° 79.764°
升交点赤经 198.325° 206.023°
平近点角 74.850° 328.423°
近地点 975.081km 975.041km
远地点 1215.863km 1215.899km
周期 107.166分钟 107.166分钟
每日圈数 13.437153 13.437158
Detailed Information
使用方式:
暂无
2D Orbit Map
3D Orbit Map
Orbit Altitude Analysis Chart
Orbit Inclination Analysis Chart
Orbit Comprehensive Analysis Chart
View Comprehensive Chart